This is the latest recevied weather packets stored in our database for station/object 9A3SWO. If no packets are shown the sender has not sent any weather packets the latest 10 day(s).
| Time | Temp. | Humidity | Pressure | Rain* | Wind** | Luminosity | Snow |
|---|---|---|---|---|---|---|---|
| 1777620793 | 15° C | 44% | 1029.8 hPa | - | - | - | - |
| 1777620194 | 14.44° C | 43% | 1029.8 hPa | - | - | - | - |
| 1777619593 | 14.44° C | 47% | 1029.9 hPa | - | - | - | - |
| 1777618993 | 14.44° C | 47% | 1029.9 hPa | - | - | - | - |
| 1777618392 | 14.44° C | 47% | 1030 hPa | - | - | - | - |
| 1777617792 | 13.89° C | 47% | 1030.1 hPa | - | - | - | - |
| 1777617193 | 13.89° C | 47% | 1029.9 hPa | - | - | - | - |
| 1777616593 | 13.33° C | 47% | 1029.8 hPa | - | - | - | - |
| 1777615993 | 13.33° C | 47% | 1029.9 hPa | - | - | - | - |
| 1777615393 | 13.33° C | 46% | 1029.8 hPa | - | - | - | - |
| 1777614793 | 12.78° C | 47% | 1029.8 hPa | - | - | - | - |
| 1777614193 | 12.22° C | 47% | 1029.7 hPa | - | - | - | - |
| 1777613593 | 12.22° C | 47% | 1029.8 hPa | - | - | - | - |
| 1777612993 | 11.67° C | 47% | 1029.8 hPa | - | - | - | - |
| 1777612392 | 11.67° C | 47% | 1029.9 hPa | - | - | - | - |
| 1777611793 | 12.22° C | 46% | 1029.7 hPa | - | - | - | - |
| 1777611193 | 11.67° C | 46% | 1029.7 hPa | - | - | - | - |
| 1777610593 | 11.67° C | 46% | 1029.6 hPa | - | - | - | - |
| 1777609992 | 11.11° C | 46% | 1029.7 hPa | - | - | - | - |
| 1777609393 | 11.11° C | 46% | 1029.6 hPa | - | - | - | - |
| 1777608792 | 11.11° C | 47% | 1029.6 hPa | - | - | - | - |
| 1777608192 | 10.56° C | 48% | 1029.6 hPa | - | - | - | - |
| 1777607593 | 10.56° C | 47% | 1029.5 hPa | - | - | - | - |
| 1777606992 | 11.11° C | 47% | 1029.5 hPa | - | - | - | - |
| 1777606392 | 11.11° C | 46% | 1029.4 hPa | - | - | - | - |
* Rain since midnight (hover to see other rain measurements)
** Current wind speed in m/s (hover to see current wind gust speed)